User: anonymous   Login
Location: Nitra
(0.0000°N, 18.0833°E)
Time: 00:38:38
(UTC+02:00)
Language:

SR - Orbit

View from above orbital plane
View from above orbital plane
View from above satellite
View from above satellite

Ground track
Ground track

The orbit data is extracted from the following two-line orbital elements,

1 00046U 60007B   24151.21684989  .00001284  00000-0  26851-3 0  9993
2 00046  66.6888 103.6864 0197112 136.1244 225.5715 14.51935073348284
Epoch (UTC): 30 May 2024 05:12:15
Eccentricity: 0.0197112
inclination: 66.6888°
perigee height: 579 km
apogee height: 859 km
right ascension of ascending node: 103.6864°
argument of perigee: 136.1244°
revolutions per day: 14.51935073
mean anomaly at epoch: 225.5715°
orbit number at epoch: 34828

The dashed part of the orbit path shows where the satellite is in the earth's shadow,  

DLR